Change the Weather History Date:

Saturday, October 5, 2013

  Actual Average Record
Temperature  
Mean Temperature 76 °F -  
Max Temperature 87 °F 75 °F 91 °F (1959)
Min Temperature 66 °F 51 °F 35 °F (1961)
Cooling Degree Days 12    
Growing Degree Days 26 (Base 50)    
Moisture  
Dew Point 68 °F    
Average Humidity 85    
Maximum Humidity 100    
Minimum Humidity 46    
Precipitation  
Precipitation 0.00 in - - ()
Sea Level Pressure  
Sea Level Pressure 30.09 in    
Wind  
Wind Speed 0 mph (NW)    
Max Wind Speed 6 mph    
Max Gust Speed -    
Visibility 9 miles    
Events      
Averages and records for this station are not official NWS values.
T = Trace of Precipitation, MM = Missing Value Source: NWS Daily Summary

Daily Weather History Graph

Daily Weather History Graph

Search for Another Location

Airport or City:

Trip Planner

Search our weather history database for the weather conditions in past years. The results will help you decide how hot, cold, wet, or windy it might be!

Date:

Astronomy

Oct. 05, 2013 Rise Set
Actual Time 7:04 AM EDT 6:40 PM EDT
Civil Twilight 6:37 AM EDT 7:06 PM EDT
Nautical Twilight 6:06 AM EDT 7:37 PM EDT
Astronomical Twilight 5:35 AM EDT 8:08 PM EDT
Moon 7:40 AM EDT (10/5) 6:58 PM EDT (10/5)
Length of Visible Light 12h 29m
Length of Day
11h 36m
New Moon, 0% of the Moon is Illuminated
Oct 5
New Moon
Oct 11
First Quarter
Oct 18
Full
Oct 26
Last Quarter
Nov 3
New

Hourly Weather History & Observations

Time (EDT) Temp. Heat Index Dew Point Humidity Pressure Visibility Wind Dir Wind Speed Gust Speed Precip Events Conditions
12:03 AM 70.9 °F - 66.7 °F 87% 30.08 in 10.0 mi Calm Calm - N/A   Clear
12:23 AM 71.4 °F - 67.1 °F 86% 30.08 in 10.0 mi Calm Calm - N/A   Clear
12:44 AM 71.2 °F - 67.3 °F 87% 30.08 in 10.0 mi Calm Calm - N/A   Clear
1:04 AM 69.6 °F - 68.0 °F 95% 30.08 in 10.0 mi Calm Calm - N/A   Clear
1:24 AM 69.8 °F - 67.3 °F 92% 30.08 in 10.0 mi Calm Calm - N/A   Clear
1:44 AM 68.9 °F - 68.9 °F 100% 30.08 in 10.0 mi Calm Calm - N/A   Clear
2:04 AM 69.8 °F - 69.8 °F 100% 30.08 in 10.0 mi Calm Calm - N/A   Clear
2:24 AM 70.0 °F - 70.0 °F 100% 30.08 in 10.0 mi Calm Calm - N/A   Clear
2:44 AM 69.8 °F - 69.8 °F 100% 30.08 in 10.0 mi Calm Calm - N/A   Clear
3:04 AM 68.9 °F - 68.9 °F 100% 30.08 in 10.0 mi Calm Calm - N/A   Clear
3:24 AM 68.9 °F - 68.9 °F 100% 30.08 in 10.0 mi Calm Calm - N/A   Scattered Clouds
3:44 AM 69.8 °F - 69.8 °F 100% 30.08 in 10.0 mi Calm Calm - N/A   Mostly Cloudy
4:04 AM 70.2 °F - 70.2 °F 100% 30.08 in 10.0 mi Calm Calm - N/A   Mostly Cloudy
4:24 AM 69.3 °F - 69.3 °F 100% 30.08 in 7.0 mi Calm Calm - N/A   Scattered Clouds
4:44 AM 68.9 °F - 68.9 °F 100% 30.08 in 10.0 mi Calm Calm - N/A   Clear
5:04 AM 69.1 °F - 69.1 °F 100% 30.08 in 10.0 mi Calm Calm - N/A   Clear
5:24 AM 68.7 °F - 68.7 °F 100% 30.08 in 7.0 mi Calm Calm - N/A   Clear
5:44 AM 68.4 °F - 68.4 °F 100% 30.09 in 7.0 mi Calm Calm - N/A   Clear
5:53 AM 68.0 °F - 68.0 °F 100% 30.09 in 7.0 mi Calm Calm - N/A   Clear
6:04 AM 67.8 °F - 67.8 °F 100% 30.09 in 7.0 mi Calm Calm - N/A   Clear
6:24 AM 68.9 °F - 68.9 °F 100% 30.10 in 7.0 mi Calm Calm - N/A   Clear
6:44 AM 68.4 °F - 68.4 °F 100% 30.10 in 5.0 mi Calm Calm - N/A   Clear
6:46 AM 68.5 °F - 68.5 °F 100% 30.10 in 5.0 mi Calm Calm - N/A   Clear
6:53 AM 66.2 °F - 66.2 °F 100% 30.10 in 7.0 mi Calm Calm - N/A   Scattered Clouds
7:53 AM 68.0 °F - 68.0 °F 100% 30.11 in 7.0 mi Calm Calm - N/A   Scattered Clouds
8:50 AM 73.4 °F - 73.4 °F 100% 30.12 in 10.0 mi Calm Calm - N/A   Scattered Clouds
9:57 AM 80.6 °F 83.2 °F 68.0 °F 65% 30.12 in 10.0 mi NNW 4.6 mph - N/A   Clear
10:54 AM 82.4 °F 85.4 °F 68.0 °F 62% 30.12 in 10.0 mi NE 5.8 mph - N/A   Clear
11:48 AM 84.2 °F 86.6 °F 66.2 °F 55% 30.11 in 10.0 mi Calm Calm - N/A   Scattered Clouds
12:47 PM 86.0 °F 88.2 °F 66.2 °F 51% 30.10 in 10.0 mi WNW 5.8 mph - N/A   Scattered Clouds
1:50 PM 86.0 °F 87.3 °F 64.4 °F 48% 30.08 in 10.0 mi NW 3.5 mph - N/A   Scattered Clouds
2:55 PM 87.8 °F 89.4 °F 64.4 °F 46% 30.07 in 10.0 mi NW 5.8 mph - N/A   Scattered Clouds
3:55 PM 87.8 °F 89.4 °F 64.4 °F 46% 30.06 in 10.0 mi SW 3.5 mph - N/A   Scattered Clouds
4:55 PM 86.0 °F 87.3 °F 64.4 °F 48% 30.06 in 10.0 mi Calm Calm - N/A   Scattered Clouds
5:45 PM 84.2 °F 86.6 °F 66.2 °F 55% 30.06 in 10.0 mi Calm Calm - N/A   Partly Cloudy
6:45 PM 80.6 °F 82.7 °F 66.2 °F 61% 30.06 in 10.0 mi Calm Calm - N/A   Partly Cloudy
7:47 PM 77.0 °F - 66.2 °F 69% 30.05 in 10.0 mi Calm Calm - N/A   Clear
8:45 PM 75.2 °F - 66.2 °F 73% 30.07 in 10.0 mi Calm Calm - N/A   Clear
10:06 PM 72.3 °F - 66.0 °F 80% 30.08 in 10.0 mi Calm Calm - N/A   Clear
10:26 PM 71.8 °F - 66.9 °F 85% 30.09 in 10.0 mi Calm Calm - N/A   Clear
10:46 PM 72.5 °F - 67.6 °F 85% 30.09 in 10.0 mi Calm Calm - N/A   Clear
11:06 PM 71.1 °F - 67.6 °F 89% 30.09 in 10.0 mi Calm Calm - N/A   Clear
11:26 PM 71.2 °F - 67.3 °F 87% 30.09 in 10.0 mi Calm Calm - N/A   Clear
11:46 PM 71.1 °F - 67.5 °F 88% 30.08 in 10.0 mi Calm Calm - N/A   Clear